Location: Asheville, NC
(35.6000°N, 82.5500°W)
Time: 14:57:09
(UTC-05:00)

SEEDS - Pass Details

Date: 10 January 2018
Orbit: 587 x 606 km, 97.5° (Epoch: 18 January)

Event Time Altitude Azimuth Distance (km) Brightness Sun altitude
Rises 18:32:12 0° 148° (SSE) 2,844 ? -11.4°
Reaches altitude 10° 18:34:29 10° 140° (SE) 1,943 ? -11.8°
Maximum altitude 18:38:23 37° 73° (ENE) 939 ? -12.6°
Drops below altitude 10° 18:42:17 10° 6° (N) 1,948 ? -13.4°
Sets 18:44:34 0° 358° (N) 2,852 ? -13.8°
